(24) Themis
ephemeris date magn radius delta ra dec elong phase
Today3 Jul 202512.92.849 AU3.119 AU11h10m+05°43'65.3°18.9°
Opposition30 May 202611.53.187 AU2.174 AU16h29m-22°24'179.3°0.2°
(24) Themis - 2025-07-03
astro.vanbuitenen.nl


 
-1 year
-1 month
-1 day
Now
+1 day
+1 month
+1 year

The interactive orbit chart above shows the body's path through the solar system and its position at the given date. Green and blue lines are shown perpendicular to the ecliptic plane: Green if the path is above the ecliptic plane, blue if it is below. (Left-click and drag to rotate the view; Right-click and drag to move the view; Use scroll wheel to zoom in our out.)

The orbital elements of Themis are:

            e (Eccentricity)                : 0.1152743
            a (Semimajor axis)              : 3.1427396
            i (Inclination)                 : 0.73676
            Ω (Longitude of ascending node) : 36.38948
            ω (Argument of perihelion)      : 109.03447
            M (Mean anomaly)                : 21.45735
            Epoch                           : 2025 May 05

            L (Longitude of perihelion)     : -34.57459
            B (Latitude of perihelion)      : 0.69647
            P (Orbital period in years)     : 5.57            
        

The light curve chart below shows the estimated development of the minor planet's magnitude.


The all-sky chart below shows the path of the minor planet over the same period as the light curve. The current position is marked yellow.





The following chart shows the path of the minor planet in the next few days. The field of view is optimized for (~10x50) binoculars and finderscopes. A more printer-friendly version of the same chart can be found below.




Ephemerides:
Date       Time       RA (2000)    DEC (2000)    delta   radius  elong  phase   PA    magn
2025-07-03 00:00 UT   11 10 10.0   +05 43 12     3.119    2.849   65.3   18.9   113   12.9 
2025-07-03 05:03 UT   11 10 24.8   +05 41 36     3.122    2.849   65.2   18.9   113   12.9 
2025-07-04 00:00 UT   11 11 20.7   +05 35 33     3.132    2.849   64.7   18.8   113   12.9 
2025-07-05 00:00 UT   11 12 31.8   +05 27 51     3.144    2.850   64.1   18.7   113   13.0 
2025-07-06 00:00 UT   11 13 43.3   +05 20 07     3.157    2.851   63.4   18.6   113   13.0 
2025-07-07 00:00 UT   11 14 55.2   +05 12 19     3.169    2.852   62.8   18.5   113   13.0 
2025-07-08 00:00 UT   11 16 07.5   +05 04 28     3.181    2.852   62.2   18.4   113   13.0 
2025-07-09 00:00 UT   11 17 20.1   +04 56 34     3.194    2.853   61.6   18.3   113   13.0 
2025-07-10 00:00 UT   11 18 33.2   +04 48 38     3.206    2.854   60.9   18.1   113   13.0 
2025-07-11 00:00 UT   11 19 46.5   +04 40 38     3.218    2.855   60.3   18.0   113   13.0 
2025-07-12 00:00 UT   11 21 00.3   +04 32 36     3.230    2.855   59.7   17.9   113   13.0 
2025-07-13 00:00 UT   11 22 14.3   +04 24 32     3.242    2.856   59.1   17.8   113   13.0 
2025-07-14 00:00 UT   11 23 28.7   +04 16 24     3.254    2.857   58.5   17.7   113   13.0 
2025-07-15 00:00 UT   11 24 43.5   +04 08 14     3.266    2.858   57.8   17.5   113   13.0 
2025-07-16 00:00 UT   11 25 58.6   +04 00 02     3.278    2.858   57.2   17.4   113   13.0 
2025-07-17 00:00 UT   11 27 14.0   +03 51 46     3.289    2.859   56.6   17.3   113   13.0 
2025-07-18 00:00 UT   11 28 29.7   +03 43 29     3.301    2.860   56.0   17.1   113   13.0 
2025-07-19 00:00 UT   11 29 45.7   +03 35 09     3.313    2.861   55.4   17.0   113   13.0 
2025-07-20 00:00 UT   11 31 02.1   +03 26 46     3.324    2.861   54.8   16.9   113   13.0 
2025-07-21 00:00 UT   11 32 18.8   +03 18 21     3.336    2.862   54.2   16.7   113   13.0 
2025-07-22 00:00 UT   11 33 35.7   +03 09 54     3.347    2.863   53.6   16.6   113   13.0 
2025-07-23 00:00 UT   11 34 53.0   +03 01 24     3.358    2.864   53.0   16.5   113   13.0 
2025-07-24 00:00 UT   11 36 10.6   +02 52 53     3.369    2.865   52.4   16.3   113   13.0 
2025-07-25 00:00 UT   11 37 28.4   +02 44 19     3.381    2.865   51.8   16.2   113   13.0 
2025-07-26 00:00 UT   11 38 46.5   +02 35 43     3.392    2.866   51.2   16.0   113   13.0 
2025-07-27 00:00 UT   11 40 05.0   +02 27 04     3.403    2.867   50.6   15.9   113   13.0 


    Terminology:
            
    delta:  distance between minor planet and earth in AU
    radius: distance between minor planet and sun in AU
    magn:   magnitude (brightness) estimate    
    ra:     right ascension in hours (24h = 360deg)
    dec:    declination in degrees
    elong:  elongation in degrees (angle sun-earth-minor planet)    
    phase:  phase angle in degrees (angle sun-minor planet-earth)        
    AU:     Astronomical Unit (mean distance between earth and sun: 149597870.7 km
    

Orbital elements provided by the MPC (Minor Planet Center).
Calculations by a modified version of AAPlus, a C# implementation of the AA+ project by PJ Naughter from the algorithms presented in the book "Astronomical Algorithms" by Jean Meeus.
NGC2000 dso catalog and star labels from VizieR as provided by the Strasbourg astronomical Data Center.
Tycho2 catalog from the ESO archive.